User: anonymous   Login
Location: Unspecified
(0.0000°N, 0.0000°E)
Time: 06:50:41
(UTC+00:00)
Language:

Cosmos 1733 - Orbit

View from above orbital plane
View from above orbital plane
View from above satellite
View from above satellite

Ground track
Ground track

The orbit data is extracted from the following two-line orbital elements,

1 16611U 86018A   18111.93625064 +.00000485 +00000-0 +23093-4 0  9993
2 16611 082.4877 093.0838 0012453 359.2548 000.8664 15.16701661755516
Epoch (UTC): 21 April 2018 22:28:12
Eccentricity: 0.0012453
inclination: 82.4877°
perigee height: 507 km
apogee height: 524 km
right ascension of ascending node: 93.0838°
argument of perigee: 359.2548°
revolutions per day: 15.16701661
mean anomaly at epoch: 0.8664°
orbit number at epoch: 75551

The dashed part of the orbit path shows where the satellite is in the earth's shadow,  

DLR